Time,TemperatureF,DewpointF,PressureIn,WindDirection,WindDirectionDegrees,WindSpeedMPH,WindSpeedGustMPH,Humidity,HourlyPrecipIn,Conditions,Clouds,dailyrainin,SoftwareType,DateUTC
2013-04-11 00:00:00,38.8,38.0,29.95,ESE,121,0.0,1.0,97,0.00,,,0.21,VWS V14.01,2013-04-11 04:00:00,
2013-04-11 00:05:00,38.7,37.9,29.95,ESE,121,0.0,0.0,97,0.00,,,0.00,VWS V14.01,2013-04-11 04:05:00,
2013-04-11 00:10:00,38.8,38.0,29.95,ESE,121,0.0,0.0,97,0.00,,,0.00,VWS V14.01,2013-04-11 04:10:00,
2013-04-11 00:15:00,38.7,37.9,29.96,ESE,121,0.0,0.0,97,0.00,,,0.00,VWS V14.01,2013-04-11 04:15:00,
2013-04-11 00:20:00,38.7,37.9,29.96,ESE,121,0.0,0.0,97,0.00,,,0.00,VWS V14.01,2013-04-11 04:20:00,
2013-04-11 00:25:00,38.6,37.6,29.96,ESE,121,0.0,0.0,96,0.00,,,0.00,VWS V14.01,2013-04-11 04:25:00,
2013-04-11 00:30:00,38.5,37.5,29.97,ESE,121,0.0,0.0,96,0.00,,,0.00,VWS V14.01,2013-04-11 04:30:00,
2013-04-11 00:35:00,38.6,37.6,29.97,ESE,121,0.0,0.0,96,0.00,,,0.00,VWS V14.01,2013-04-11 04:35:00,
2013-04-11 00:40:00,38.6,37.6,29.97,ESE,121,0.0,0.0,96,0.00,,,0.00,VWS V14.01,2013-04-11 04:40:00,
2013-04-11 00:45:00,38.6,37.6,29.97,ESE,121,0.0,0.0,96,0.00,,,0.00,VWS V14.01,2013-04-11 04:45:00,
2013-04-11 00:50:00,38.6,37.6,29.97,ESE,121,0.0,0.0,96,0.00,,,0.00,VWS V14.01,2013-04-11 04:50:00,
2013-04-11 00:55:00,38.5,37.5,29.98,ESE,121,0.0,0.0,96,0.00,,,0.00,VWS V14.01,2013-04-11 04:55:00,
2013-04-11 01:00:00,38.5,37.5,29.98,ESE,121,0.0,0.0,96,0.00,,,0.00,VWS V14.01,2013-04-11 05:00:00,
2013-04-11 01:05:00,38.5,37.7,29.98,ESE,121,0.0,0.0,97,0.00,,,0.00,VWS V14.01,2013-04-11 05:05:00,
2013-04-11 01:10:00,38.6,37.8,29.98,ESE,121,0.0,1.0,97,0.00,,,0.00,VWS V14.01,2013-04-11 05:10:00,
2013-04-11 01:15:00,38.5,37.7,29.98,North,5,0.0,0.0,97,0.00,,,0.00,VWS V14.01,2013-04-11 05:15:00,
2013-04-11 01:20:00,38.5,37.5,29.97,North,5,0.0,0.0,96,0.00,,,0.00,VWS V14.01,2013-04-11 05:20:00,
2013-04-11 01:25:00,38.4,37.4,29.97,North,5,0.0,0.0,96,0.00,,,0.00,VWS V14.01,2013-04-11 05:25:00,
2013-04-11 01:30:00,38.3,37.3,29.96,North,5,0.0,0.0,96,0.00,,,0.00,VWS V14.01,2013-04-11 05:30:00,
2013-04-11 01:35:00,38.2,37.2,29.96,North,5,0.0,0.0,96,0.00,,,0.00,VWS V14.01,2013-04-11 05:35:00,
2013-04-11 01:40:00,38.1,37.1,29.95,North,5,0.0,1.0,96,0.00,,,0.00,VWS V14.01,2013-04-11 05:40:00,
2013-04-11 01:45:00,38.0,37.0,29.94,North,5,0.0,0.0,96,0.00,,,0.00,VWS V14.01,2013-04-11 05:45:00,
2013-04-11 01:50:00,37.8,36.8,29.94,East,90,0.0,4.0,96,0.00,,,0.00,VWS V14.01,2013-04-11 05:50:00,
2013-04-11 01:55:00,37.8,36.8,29.94,East,95,0.0,2.0,96,0.00,,,0.00,VWS V14.01,2013-04-11 05:55:00,
2013-04-11 02:00:00,37.8,36.8,29.94,East,95,0.0,2.0,96,0.00,,,0.00,VWS V14.01,2013-04-11 06:00:00,
2013-04-11 02:05:00,37.7,36.7,29.94,East,95,0.0,0.0,96,0.00,,,0.00,VWS V14.01,2013-04-11 06:05:00,
2013-04-11 02:10:00,37.7,36.7,29.94,East,95,0.0,2.0,96,0.00,,,0.00,VWS V14.01,2013-04-11 06:10:00,
2013-04-11 02:15:00,37.7,36.7,29.95,East,95,0.0,0.0,96,0.00,,,0.00,VWS V14.01,2013-04-11 06:15:00,
2013-04-11 02:20:00,37.7,36.7,29.95,East,101,0.0,5.0,96,0.00,,,0.00,VWS V14.01,2013-04-11 06:20:00,
2013-04-11 02:25:00,37.8,36.8,29.94,East,101,0.0,0.0,96,0.00,,,0.00,VWS V14.01,2013-04-11 06:25:00,
2013-04-11 02:30:00,37.7,36.7,29.94,East,101,0.0,1.0,96,0.00,,,0.00,VWS V14.01,2013-04-11 06:30:00,
2013-04-11 02:35:00,37.7,36.7,29.94,East,101,0.0,0.0,96,0.00,,,0.00,VWS V14.01,2013-04-11 06:35:00,
2013-04-11 02:40:00,37.7,36.7,29.95,East,101,0.0,0.0,96,0.00,,,0.00,VWS V14.01,2013-04-11 06:40:00,
2013-04-11 02:45:00,37.5,36.5,29.95,East,96,0.0,0.0,96,0.00,,,0.00,VWS V14.01,2013-04-11 06:45:00,
2013-04-11 02:50:00,37.5,36.5,29.94,ENE,76,0.0,3.0,96,0.00,,,0.00,VWS V14.01,2013-04-11 06:50:00,
2013-04-11 02:55:00,37.4,36.1,29.94,East,80,0.0,1.0,95,0.00,,,0.00,VWS V14.01,2013-04-11 06:55:00,
2013-04-11 03:00:00,37.3,36.0,29.94,East,80,0.0,4.0,95,0.00,,,0.00,VWS V14.01,2013-04-11 07:00:00,
2013-04-11 03:05:00,37.1,35.8,29.93,North,355,3.0,5.0,95,0.00,,,0.00,VWS V14.01,2013-04-11 07:05:00,
2013-04-11 03:10:00,37.5,35.7,29.94,NNW,341,0.0,5.0,93,0.00,,,0.00,VWS V14.01,2013-04-11 07:10:00,
2013-04-11 03:15:00,37.5,35.4,29.95,NNE,13,3.0,4.0,92,0.00,,,0.00,VWS V14.01,2013-04-11 07:15:00,
2013-04-11 03:20:00,37.4,35.0,29.95,North,360,2.0,5.0,91,0.01,,,0.01,VWS V14.01,2013-04-11 07:20:00,
2013-04-11 03:25:00,37.2,34.8,29.94,North,360,0.0,0.0,91,0.01,,,0.01,VWS V14.01,2013-04-11 07:25:00,
2013-04-11 03:30:00,36.7,34.3,29.94,North,360,0.0,0.0,91,0.01,,,0.01,VWS V14.01,2013-04-11 07:30:00,
2013-04-11 03:35:00,36.0,33.9,29.94,ENE,75,0.0,0.0,92,0.01,,,0.01,VWS V14.01,2013-04-11 07:35:00,
2013-04-11 03:40:00,35.6,33.8,29.94,ENE,75,0.0,2.0,93,0.01,,,0.01,VWS V14.01,2013-04-11 07:40:00,
2013-04-11 03:45:00,35.5,33.7,29.94,East,86,0.0,0.0,93,0.01,,,0.01,VWS V14.01,2013-04-11 07:45:00,
2013-04-11 03:50:00,35.4,33.6,29.94,South,182,0.0,2.0,93,0.01,,,0.01,VWS V14.01,2013-04-11 07:50:00,
2013-04-11 03:55:00,35.3,33.5,29.95,South,182,0.0,0.0,93,0.01,,,0.01,VWS V14.01,2013-04-11 07:55:00,
2013-04-11 04:00:00,35.0,33.2,29.95,South,182,0.0,0.0,93,0.01,,,0.01,VWS V14.01,2013-04-11 08:00:00,
2013-04-11 04:05:00,34.7,32.9,29.95,South,182,0.0,0.0,93,0.01,,,0.01,VWS V14.01,2013-04-11 08:05:00,
2013-04-11 04:10:00,34.4,32.6,29.96,South,182,0.0,2.0,93,0.01,,,0.01,VWS V14.01,2013-04-11 08:10:00,
2013-04-11 04:15:00,34.2,32.4,29.97,South,182,0.0,0.0,93,0.01,,,0.01,VWS V14.01,2013-04-11 08:15:00,
2013-04-11 04:20:00,34.1,32.6,29.96,South,182,0.0,1.0,94,0.01,,,0.01,VWS V14.01,2013-04-11 08:20:00,
2013-04-11 04:25:00,34.0,32.5,29.97,South,182,0.0,0.0,94,0.00,,,0.01,VWS V14.01,2013-04-11 08:25:00,
2013-04-11 04:30:00,33.9,32.4,29.97,South,182,0.0,0.0,94,0.00,,,0.01,VWS V14.01,2013-04-11 08:30:00,
2013-04-11 04:35:00,33.8,32.3,29.98,West,264,0.0,1.0,94,0.00,,,0.01,VWS V14.01,2013-04-11 08:35:00,
2013-04-11 04:40:00,33.7,32.2,29.98,West,267,0.0,3.0,94,0.00,,,0.01,VWS V14.01,2013-04-11 08:40:00,
2013-04-11 04:45:00,33.8,32.3,29.98,WNW,284,0.0,0.0,94,0.00,,,0.01,VWS V14.01,2013-04-11 08:45:00,
2013-04-11 04:50:00,33.7,31.9,29.98,SSW,207,4.0,7.0,93,0.00,,,0.01,VWS V14.01,2013-04-11 08:50:00,
2013-04-11 04:55:00,33.4,31.3,29.98,WNW,290,5.0,5.0,92,0.00,,,0.01,VWS V14.01,2013-04-11 08:55:00,
2013-04-11 05:00:00,33.2,31.1,29.98,WNW,302,0.0,6.0,92,0.00,,,0.01,VWS V14.01,2013-04-11 09:00:00,
2013-04-11 05:05:00,32.9,30.8,29.98,WNW,302,0.0,0.0,92,0.00,,,0.01,VWS V14.01,2013-04-11 09:05:00,
2013-04-11 05:10:00,32.7,30.6,29.99,WNW,302,0.0,1.0,92,0.00,,,0.01,VWS V14.01,2013-04-11 09:10:00,
2013-04-11 05:15:00,32.6,30.5,29.99,NW,320,0.0,0.0,92,0.00,,,0.01,VWS V14.01,2013-04-11 09:15:00,
2013-04-11 05:20:00,32.4,30.3,29.99,NW,320,0.0,0.0,92,0.00,,,0.01,VWS V14.01,2013-04-11 09:20:00,
2013-04-11 05:25:00,32.3,30.2,29.99,NW,316,0.0,0.0,92,0.00,,,0.01,VWS V14.01,2013-04-11 09:25:00,
2013-04-11 05:30:00,32.1,30.0,29.99,NW,316,0.0,1.0,92,0.00,,,0.01,VWS V14.01,2013-04-11 09:30:00,
2013-04-11 05:35:00,31.9,29.8,30.00,WNW,303,6.0,6.0,92,0.00,,,0.01,VWS V14.01,2013-04-11 09:35:00,
2013-04-11 05:40:00,31.6,29.5,30.00,WNW,290,0.0,7.0,92,0.00,,,0.01,VWS V14.01,2013-04-11 09:40:00,
2013-04-11 05:45:00,31.5,29.7,30.00,West,271,0.0,0.0,93,0.00,,,0.01,VWS V14.01,2013-04-11 09:45:00,
2013-04-11 05:50:00,31.3,29.5,30.01,West,271,0.0,0.0,93,0.00,,,0.01,VWS V14.01,2013-04-11 09:50:00,
2013-04-11 05:55:00,31.2,29.7,30.02,West,271,0.0,0.0,94,0.00,,,0.01,VWS V14.01,2013-04-11 09:55:00,
2013-04-11 06:00:00,31.2,29.7,30.02,WSW,239,0.0,3.0,94,0.00,,,0.01,VWS V14.01,2013-04-11 10:00:00,
2013-04-11 06:05:00,31.4,29.9,30.02,NNE,13,0.0,0.0,94,0.00,,,0.01,VWS V14.01,2013-04-11 10:05:00,
2013-04-11 06:10:00,31.5,30.0,30.03,NNE,13,0.0,0.0,94,0.00,,,0.01,VWS V14.01,2013-04-11 10:10:00,
2013-04-11 06:15:00,31.6,30.1,30.03,NNW,344,0.0,0.0,94,0.00,,,0.01,VWS V14.01,2013-04-11 10:15:00,
2013-04-11 06:20:00,31.7,30.2,30.03,North,355,0.0,5.0,94,0.00,,,0.01,VWS V14.01,2013-04-11 10:20:00,
2013-04-11 06:25:00,31.8,30.3,30.03,NNW,343,0.0,0.0,94,0.00,,,0.01,VWS V14.01,2013-04-11 10:25:00,
2013-04-11 06:30:00,31.7,30.2,30.04,North,355,0.0,5.0,94,0.00,,,0.01,VWS V14.01,2013-04-11 10:30:00,
2013-04-11 06:35:00,31.6,30.1,30.04,North,355,0.0,5.0,94,0.00,,,0.01,VWS V14.01,2013-04-11 10:35:00,
2013-04-11 06:40:00,31.6,29.8,30.04,North,355,0.0,1.0,93,0.00,,,0.01,VWS V14.01,2013-04-11 10:40:00,
2013-04-11 06:45:00,31.6,30.1,30.04,North,355,0.0,1.0,94,0.00,,,0.01,VWS V14.01,2013-04-11 10:45:00,
2013-04-11 06:50:00,31.4,29.6,30.05,North,355,0.0,3.0,93,0.00,,,0.01,VWS V14.01,2013-04-11 10:50:00,
2013-04-11 06:55:00,31.3,29.5,30.05,North,355,0.0,0.0,93,0.00,,,0.01,VWS V14.01,2013-04-11 10:55:00,
2013-04-11 07:00:00,31.2,29.4,30.04,North,355,0.0,4.0,93,0.00,,,0.01,VWS V14.01,2013-04-11 11:00:00,
2013-04-11 07:05:00,31.2,29.4,30.04,North,355,0.0,4.0,93,0.00,,,0.01,VWS V14.01,2013-04-11 11:05:00,
2013-04-11 07:10:00,31.1,29.3,30.04,ENE,58,0.0,3.0,93,0.00,,,0.01,VWS V14.01,2013-04-11 11:10:00,
2013-04-11 07:15:00,30.9,28.9,30.04,WNW,292,0.0,3.0,92,0.00,,,0.01,VWS V14.01,2013-04-11 11:15:00,
2013-04-11 07:20:00,30.7,28.7,30.04,ENE,67,0.0,2.0,92,0.00,,,0.01,VWS V14.01,2013-04-11 11:20:00,
2013-04-11 07:24:00,30.6,28.3,30.05,West,277,2.0,3.0,91,0.00,,,0.01,VWS V14.01,2013-04-11 11:24:00,
2013-04-11 07:29:00,30.5,27.6,30.05,NE,34,0.0,3.0,89,0.00,,,0.01,VWS V14.01,2013-04-11 11:29:00,
2013-04-11 07:34:00,30.6,28.0,30.05,NE,34,0.0,3.0,90,0.00,,,0.01,VWS V14.01,2013-04-11 11:34:00,
2013-04-11 07:39:00,30.6,28.0,30.06,NE,34,0.0,0.0,90,0.00,,,0.01,VWS V14.01,2013-04-11 11:39:00,
2013-04-11 07:45:00,30.6,27.5,30.06,NE,34,0.0,2.0,88,0.00,,,0.01,VWS V14.01,2013-04-11 11:45:00,
2013-04-11 07:49:00,30.7,27.6,30.07,NE,34,0.0,0.0,88,0.00,,,0.01,VWS V14.01,2013-04-11 11:49:00,
2013-04-11 07:54:00,30.8,27.4,30.07,NE,34,0.0,1.0,87,0.00,,,0.01,VWS V14.01,2013-04-11 11:54:00,
2013-04-11 07:59:00,31.0,27.9,30.07,NE,34,0.0,1.0,88,0.00,,,0.01,VWS V14.01,2013-04-11 11:59:00,
2013-04-11 08:04:00,31.0,27.3,30.07,NE,34,0.0,3.0,86,0.00,,,0.01,VWS V14.01,2013-04-11 12:04:00,
2013-04-11 08:09:00,31.2,27.8,30.07,NE,44,1.0,6.0,87,0.00,,,0.01,VWS V14.01,2013-04-11 12:09:00,
2013-04-11 08:14:00,31.1,26.5,30.07,ENE,71,0.0,6.0,83,0.00,,,0.01,VWS V14.01,2013-04-11 12:14:00,
2013-04-11 08:19:00,31.2,26.6,30.07,East,80,0.0,4.0,83,0.00,,,0.01,VWS V14.01,2013-04-11 12:19:00,
2013-04-11 08:24:00,31.4,26.5,30.07,East,101,0.0,4.0,82,0.00,,,0.01,VWS V14.01,2013-04-11 12:24:00,
2013-04-11 08:29:00,31.7,26.5,30.07,NE,36,0.0,7.0,81,0.00,,,0.01,VWS V14.01,2013-04-11 12:29:00,
2013-04-11 08:34:00,32.0,26.8,30.07,NNE,29,1.0,7.0,81,0.00,,,0.01,VWS V14.01,2013-04-11 12:34:00,
2013-04-11 08:39:00,32.1,26.3,30.07,NNW,344,0.0,6.0,79,0.00,,,0.01,VWS V14.01,2013-04-11 12:39:00,
2013-04-11 08:44:00,32.1,26.3,30.07,NNW,339,0.0,6.0,79,0.00,,,0.01,VWS V14.01,2013-04-11 12:44:00,
2013-04-11 08:49:00,32.5,27.6,30.07,NE,51,1.0,4.0,82,0.00,,,0.01,VWS V14.01,2013-04-11 12:49:00,
2013-04-11 08:54:00,32.9,27.4,30.07,NE,55,0.0,4.0,80,0.00,,,0.01,VWS V14.01,2013-04-11 12:54:00,
2013-04-11 08:59:00,33.3,27.2,30.07,East,83,0.0,4.0,78,0.00,,,0.01,VWS V14.01,2013-04-11 12:59:00,
2013-04-11 09:04:00,33.7,27.3,30.07,ENE,74,0.0,4.0,77,0.00,,,0.01,VWS V14.01,2013-04-11 13:04:00,
2013-04-11 09:09:00,34.1,27.7,30.07,East,93,0.0,1.0,77,0.00,,,0.01,VWS V14.01,2013-04-11 13:09:00,
2013-04-11 09:14:00,34.5,28.4,30.07,ENE,66,0.0,6.0,78,0.00,,,0.01,VWS V14.01,2013-04-11 13:14:00,
2013-04-11 09:19:00,34.8,28.6,30.07,NE,42,0.0,5.0,78,0.00,,,0.01,VWS V14.01,2013-04-11 13:19:00,
2013-04-11 09:24:00,34.9,28.4,30.07,NE,51,0.0,5.0,77,0.00,,,0.01,VWS V14.01,2013-04-11 13:24:00,
2013-04-11 09:29:00,35.0,27.9,30.07,NE,36,0.0,4.0,75,0.00,,,0.01,VWS V14.01,2013-04-11 13:29:00,
2013-04-11 09:34:00,35.2,27.1,30.07,NW,326,1.0,6.0,72,0.00,,,0.01,VWS V14.01,2013-04-11 13:34:00,
2013-04-11 09:39:00,35.0,26.9,30.07,East,88,2.0,6.0,72,0.00,,,0.01,VWS V14.01,2013-04-11 13:39:00,
2013-04-11 09:44:00,35.2,26.8,30.07,NNE,21,0.0,7.0,71,0.00,,,0.01,VWS V14.01,2013-04-11 13:44:00,
2013-04-11 09:49:00,35.2,26.4,30.08,East,100,1.0,6.0,70,0.00,,,0.01,VWS V14.01,2013-04-11 13:49:00,
2013-04-11 09:54:00,35.7,27.6,30.08,East,87,4.0,8.0,72,0.00,,,0.01,VWS V14.01,2013-04-11 13:54:00,
2013-04-11 09:59:00,35.6,25.4,30.08,NNE,31,1.0,8.0,66,0.00,,,0.01,VWS V14.01,2013-04-11 13:59:00,
2013-04-11 10:04:00,35.9,26.0,30.08,East,97,2.0,8.0,67,0.00,,,0.01,VWS V14.01,2013-04-11 14:04:00,
2013-04-11 10:09:00,36.0,26.8,30.09,North,355,1.0,5.0,69,0.00,,,0.01,VWS V14.01,2013-04-11 14:09:00,
2013-04-11 10:14:00,36.4,26.5,30.09,North,355,2.0,6.0,67,0.00,,,0.01,VWS V14.01,2013-04-11 14:14:00,
2013-04-11 10:19:00,36.6,27.8,30.09,NNE,19,0.0,7.0,70,0.00,,,0.01,VWS V14.01,2013-04-11 14:19:00,
2013-04-11 10:24:00,36.9,26.2,30.09,NE,55,0.0,7.0,65,0.00,,,0.01,VWS V14.01,2013-04-11 14:24:00,
2013-04-11 10:29:00,36.2,25.6,30.09,North,360,2.0,8.0,65,0.00,,,0.01,VWS V14.01,2013-04-11 14:29:00,
2013-04-11 10:34:00,35.9,25.3,30.09,North,351,7.0,8.0,65,0.00,,,0.01,VWS V14.01,2013-04-11 14:34:00,
2013-04-11 10:39:00,36.1,26.2,30.09,ENE,59,0.0,6.0,67,0.00,,,0.01,VWS V14.01,2013-04-11 14:39:00,
2013-04-11 10:44:00,36.2,26.3,30.09,North,360,3.0,6.0,67,0.00,,,0.01,VWS V14.01,2013-04-11 14:44:00,
2013-04-11 10:49:00,36.4,26.9,30.09,North,5,0.0,4.0,68,0.00,,,0.01,VWS V14.01,2013-04-11 14:49:00,
2013-04-11 10:54:00,36.6,25.2,30.09,NNW,343,1.0,4.0,63,0.00,,,0.01,VWS V14.01,2013-04-11 14:54:00,
2013-04-11 10:59:00,36.8,25.4,30.10,NE,50,0.0,4.0,63,0.00,,,0.01,VWS V14.01,2013-04-11 14:59:00,
2013-04-11 11:04:00,37.0,24.0,30.10,North,9,3.0,5.0,59,0.00,,,0.01,VWS V14.01,2013-04-11 15:04:00,
2013-04-11 11:09:00,37.0,22.8,30.10,North,9,0.0,4.0,56,0.00,,,0.01,VWS V14.01,2013-04-11 15:09:00,
2013-04-11 11:14:00,36.6,22.8,30.10,West,281,3.0,8.0,57,0.00,,,0.01,VWS V14.01,2013-04-11 15:14:00,
2013-04-11 11:19:00,36.5,21.9,30.10,NNW,332,0.0,5.0,55,0.00,,,0.01,VWS V14.01,2013-04-11 15:19:00,
2013-04-11 11:24:00,36.2,21.6,30.11,North,360,0.0,6.0,55,0.00,,,0.01,VWS V14.01,2013-04-11 15:24:00,
2013-04-11 11:29:00,36.0,21.4,30.11,North,355,0.0,8.0,55,0.00,,,0.01,VWS V14.01,2013-04-11 15:29:00,
2013-04-11 11:34:00,36.0,21.4,30.11,NNW,344,0.0,8.0,55,0.00,,,0.01,VWS V14.01,2013-04-11 15:34:00,
2013-04-11 11:39:00,36.2,22.0,30.11,North,350,3.0,5.0,56,0.00,,,0.01,VWS V14.01,2013-04-11 15:39:00,
2013-04-11 11:44:00,36.0,21.4,30.12,NNW,348,6.0,9.0,55,0.00,,,0.01,VWS V14.01,2013-04-11 15:44:00,
2013-04-11 11:49:00,35.9,21.3,30.12,NNW,342,2.0,7.0,55,0.00,,,0.01,VWS V14.01,2013-04-11 15:49:00,
2013-04-11 11:54:00,35.6,20.6,30.12,North,355,6.0,10.0,54,0.00,,,0.01,VWS V14.01,2013-04-11 15:54:00,
2013-04-11 11:59:00,35.9,20.5,30.13,NNW,348,2.0,7.0,53,0.00,,,0.01,VWS V14.01,2013-04-11 15:59:00,
2013-04-11 12:04:00,36.1,20.6,30.13,NNW,347,2.0,8.0,53,0.00,,,0.01,VWS V14.01,2013-04-11 16:04:00,
2013-04-11 12:09:00,35.8,19.5,30.13,NNW,342,5.0,9.0,51,0.00,,,0.01,VWS V14.01,2013-04-11 16:09:00,
2013-04-11 12:14:00,35.5,19.2,30.14,NNW,331,8.0,10.0,51,0.00,,,0.01,VWS V14.01,2013-04-11 16:14:00,
2013-04-11 12:19:00,35.2,18.4,30.14,North,360,6.0,9.0,50,0.00,,,0.01,VWS V14.01,2013-04-11 16:19:00,
2013-04-11 12:24:00,35.4,19.1,30.14,NNW,343,6.0,9.0,51,0.00,,,0.01,VWS V14.01,2013-04-11 16:24:00,
2013-04-11 12:29:00,35.2,18.0,30.14,NNW,331,2.0,8.0,49,0.00,,,0.01,VWS V14.01,2013-04-11 16:29:00,
2013-04-11 12:34:00,35.3,18.5,30.14,North,355,3.0,9.0,50,0.00,,,0.01,VWS V14.01,2013-04-11 16:34:00,
2013-04-11 12:39:00,35.0,18.2,30.14,North,349,7.0,10.0,50,0.00,,,0.01,VWS V14.01,2013-04-11 16:39:00,
2013-04-11 12:44:00,34.8,18.1,30.14,North,5,8.0,10.0,50,0.00,,,0.01,VWS V14.01,2013-04-11 16:44:00,
2013-04-11 12:49:00,34.8,20.3,30.14,North,355,3.0,7.0,55,0.00,,,0.01,VWS V14.01,2013-04-11 16:49:00,
2013-04-11 12:54:00,35.3,19.0,30.14,North,349,0.0,7.0,51,0.00,,,0.01,VWS V14.01,2013-04-11 16:54:00,
2013-04-11 12:59:00,35.9,21.3,30.14,NE,46,1.0,3.0,55,0.00,,,0.01,VWS V14.01,2013-04-11 16:59:00,
2013-04-11 13:04:00,36.2,22.5,30.14,North,5,0.0,3.0,57,0.00,,,0.01,VWS V14.01,2013-04-11 17:04:00,
2013-04-11 13:09:00,36.2,22.5,30.13,North,355,0.0,4.0,57,0.00,,,0.01,VWS V14.01,2013-04-11 17:09:00,
2013-04-11 13:14:00,36.0,21.0,30.13,NNE,19,1.0,5.0,54,0.00,,,0.01,VWS V14.01,2013-04-11 17:14:00,
2013-04-11 13:19:00,36.2,21.2,30.14,North,360,7.0,7.0,54,0.00,,,0.01,VWS V14.01,2013-04-11 17:19:00,
2013-04-11 13:24:00,35.9,19.1,30.14,NNW,346,4.0,7.0,50,0.00,,,0.01,VWS V14.01,2013-04-11 17:24:00,
2013-04-11 13:29:00,35.6,19.7,30.14,North,355,2.0,6.0,52,0.00,,,0.01,VWS V14.01,2013-04-11 17:29:00,
2013-04-11 13:34:00,35.3,18.5,30.14,North,360,0.0,9.0,50,0.00,,,0.01,VWS V14.01,2013-04-11 17:34:00,
2013-04-11 13:39:00,35.8,20.4,30.15,North,9,4.0,4.0,53,0.00,,,0.01,VWS V14.01,2013-04-11 17:39:00,
2013-04-11 13:44:00,36.0,19.6,30.15,NNW,336,0.0,6.0,51,0.00,,,0.01,VWS V14.01,2013-04-11 17:44:00,
2013-04-11 13:49:00,36.0,20.1,30.15,NNE,17,2.0,5.0,52,0.00,,,0.01,VWS V14.01,2013-04-11 17:49:00,
2013-04-11 13:54:00,35.8,20.4,30.15,NNE,20,1.0,7.0,53,0.00,,,0.01,VWS V14.01,2013-04-11 17:54:00,
2013-04-11 13:59:00,35.5,19.6,30.15,North,10,0.0,5.0,52,0.00,,,0.01,VWS V14.01,2013-04-11 17:59:00,
2013-04-11 14:04:00,35.5,18.2,30.15,East,90,0.0,5.0,49,0.00,,,0.01,VWS V14.01,2013-04-11 18:04:00,
2013-04-11 14:09:00,35.6,20.6,30.15,North,351,2.0,3.0,54,0.00,,,0.01,VWS V14.01,2013-04-11 18:09:00,
2013-04-11 14:14:00,35.5,19.6,30.14,North,350,1.0,8.0,52,0.00,,,0.01,VWS V14.01,2013-04-11 18:14:00,
2013-04-11 14:19:00,35.6,21.9,30.14,NNW,337,4.0,4.0,57,0.00,,,0.01,VWS V14.01,2013-04-11 18:19:00,
2013-04-11 14:24:00,35.3,19.5,30.14,North,360,0.0,5.0,52,0.00,,,0.01,VWS V14.01,2013-04-11 18:24:00,
2013-04-11 14:29:00,35.4,19.5,30.14,North,355,0.0,3.0,52,0.00,,,0.01,VWS V14.01,2013-04-11 18:29:00,
2013-04-11 14:34:00,35.6,20.2,30.13,ENE,61,0.0,4.0,53,0.00,,,0.01,VWS V14.01,2013-04-11 18:34:00,
2013-04-11 14:39:00,35.8,19.0,30.12,NNE,21,2.0,6.0,50,0.00,,,0.01,VWS V14.01,2013-04-11 18:39:00,
2013-04-11 14:44:00,35.7,18.9,30.12,NNE,15,0.0,6.0,50,0.00,,,0.01,VWS V14.01,2013-04-11 18:44:00,
2013-04-11 14:49:00,35.8,19.0,30.12,NE,56,0.0,2.0,50,0.00,,,0.01,VWS V14.01,2013-04-11 18:49:00,
2013-04-11 14:54:00,35.9,18.6,30.13,NNW,348,0.0,5.0,49,0.00,,,0.01,VWS V14.01,2013-04-11 18:54:00,
2013-04-11 14:59:00,36.1,18.8,30.13,NNW,342,6.0,8.0,49,0.00,,,0.01,VWS V14.01,2013-04-11 18:59:00,
2013-04-11 15:04:00,35.6,18.3,30.12,NNW,342,0.0,8.0,49,0.00,,,0.01,VWS V14.01,2013-04-11 19:04:00,
2013-04-11 15:09:00,35.1,18.4,30.12,North,349,2.0,8.0,50,0.00,,,0.01,VWS V14.01,2013-04-11 19:09:00,
2013-04-11 15:14:00,35.2,20.7,30.12,NNW,345,5.0,8.0,55,0.00,,,0.01,VWS V14.01,2013-04-11 19:14:00,
2013-04-11 15:19:00,35.2,18.4,30.12,NNW,348,4.0,8.0,50,0.00,,,0.01,VWS V14.01,2013-04-11 19:19:00,
2013-04-11 15:24:00,35.0,17.8,30.12,NNW,347,0.0,8.0,49,0.00,,,0.01,VWS V14.01,2013-04-11 19:24:00,
2013-04-11 15:29:00,35.1,18.4,30.12,North,355,3.0,4.0,50,0.00,,,0.01,VWS V14.01,2013-04-11 19:29:00,
2013-04-11 15:34:00,35.4,19.5,30.11,North,355,0.0,4.0,52,0.00,,,0.01,VWS V14.01,2013-04-11 19:34:00,
2013-04-11 15:39:00,36.0,21.0,30.11,NNE,26,1.0,3.0,54,0.00,,,0.01,VWS V14.01,2013-04-11 19:39:00,
2013-04-11 15:44:00,36.1,20.2,30.11,North,9,0.0,4.0,52,0.00,,,0.01,VWS V14.01,2013-04-11 19:44:00,
2013-04-11 15:49:00,35.9,19.1,30.11,North,350,0.0,7.0,50,0.00,,,0.01,VWS V14.01,2013-04-11 19:49:00,
2013-04-11 15:54:00,35.9,20.5,30.12,NNW,338,0.0,7.0,53,0.00,,,0.01,VWS V14.01,2013-04-11 19:54:00,
2013-04-11 15:59:00,35.7,18.9,30.12,North,355,3.0,7.0,50,0.00,,,0.01,VWS V14.01,2013-04-11 19:59:00,
2013-04-11 16:04:00,35.8,19.0,30.13,North,355,0.0,7.0,50,0.00,,,0.01,VWS V14.01,2013-04-11 20:04:00,
2013-04-11 16:09:00,36.0,19.6,30.12,North,355,1.0,6.0,51,0.00,,,0.01,VWS V14.01,2013-04-11 20:09:00,
2013-04-11 16:14:00,35.7,18.0,30.12,North,351,0.0,7.0,48,0.00,,,0.01,VWS V14.01,2013-04-11 20:14:00,
2013-04-11 16:19:00,35.6,18.8,30.12,North,360,0.0,6.0,50,0.00,,,0.01,VWS V14.01,2013-04-11 20:19:00,
2013-04-11 16:24:00,36.1,20.6,30.13,NNW,343,2.0,6.0,53,0.00,,,0.01,VWS V14.01,2013-04-11 20:24:00,
2013-04-11 16:29:00,36.4,19.1,30.14,NNE,17,0.0,5.0,49,0.00,,,0.01,VWS V14.01,2013-04-11 20:29:00,
2013-04-11 16:34:00,36.4,18.1,30.13,ENE,63,0.0,6.0,47,0.00,,,0.01,VWS V14.01,2013-04-11 20:34:00,
2013-04-11 16:39:00,36.4,19.5,30.13,North,5,2.0,4.0,50,0.00,,,0.01,VWS V14.01,2013-04-11 20:39:00,
2013-04-11 16:44:00,36.3,18.0,30.14,ENE,69,3.0,7.0,47,0.00,,,0.01,VWS V14.01,2013-04-11 20:44:00,
2013-04-11 16:49:00,36.4,19.1,30.14,NNW,346,5.0,7.0,49,0.00,,,0.01,VWS V14.01,2013-04-11 20:49:00,
2013-04-11 16:54:00,36.2,18.4,30.14,North,9,3.0,8.0,48,0.00,,,0.01,VWS V14.01,2013-04-11 20:54:00,
2013-04-11 16:59:00,36.0,18.2,30.14,North,355,0.0,12.0,48,0.00,,,0.01,VWS V14.01,2013-04-11 20:59:00,
2013-04-11 17:04:00,36.4,19.5,30.14,North,355,6.0,12.0,50,0.00,,,0.01,VWS V14.01,2013-04-11 21:04:00,
2013-04-11 17:09:00,36.2,17.9,30.14,North,5,3.0,5.0,47,0.00,,,0.01,VWS V14.01,2013-04-11 21:09:00,
2013-04-11 17:14:00,36.1,18.3,30.15,NNW,348,4.0,9.0,48,0.00,,,0.01,VWS V14.01,2013-04-11 21:14:00,
2013-04-11 17:19:00,35.8,18.5,30.15,North,355,2.0,7.0,49,0.00,,,0.01,VWS V14.01,2013-04-11 21:19:00,
2013-04-11 17:24:00,35.9,18.1,30.16,North,9,6.0,9.0,48,0.00,,,0.01,VWS V14.01,2013-04-11 21:24:00,
2013-04-11 17:29:00,35.6,19.7,30.15,NNW,338,7.0,7.0,52,0.00,,,0.01,VWS V14.01,2013-04-11 21:29:00,
2013-04-11 17:34:00,35.5,17.8,30.15,NNE,15,3.0,9.0,48,0.00,,,0.01,VWS V14.01,2013-04-11 21:34:00,
2013-04-11 17:39:00,35.4,17.7,30.15,NW,325,5.0,8.0,48,0.00,,,0.01,VWS V14.01,2013-04-11 21:39:00,
2013-04-11 17:44:00,35.3,18.1,30.15,NE,35,0.0,8.0,49,0.00,,,0.01,VWS V14.01,2013-04-11 21:44:00,
2013-04-11 17:49:00,35.3,18.1,30.15,North,355,0.0,8.0,49,0.00,,,0.01,VWS V14.01,2013-04-11 21:49:00,
2013-04-11 17:54:00,35.5,19.6,30.14,North,11,0.0,8.0,52,0.00,,,0.01,VWS V14.01,2013-04-11 21:54:00,
2013-04-11 17:59:00,35.5,18.2,30.15,NNW,343,0.0,5.0,49,0.00,,,0.01,VWS V14.01,2013-04-11 21:59:00,
2013-04-11 18:04:00,35.5,20.5,30.15,NNW,346,3.0,5.0,54,0.00,,,0.01,VWS V14.01,2013-04-11 22:04:00,
2013-04-11 18:09:00,35.5,18.2,30.15,North,355,0.0,4.0,49,0.00,,,0.01,VWS V14.01,2013-04-11 22:09:00,
2013-04-11 18:14:00,35.5,20.1,30.14,NNW,344,0.0,4.0,53,0.00,,,0.01,VWS V14.01,2013-04-11 22:14:00,
2013-04-11 18:19:00,35.4,20.0,30.15,NNW,346,3.0,6.0,53,0.00,,,0.01,VWS V14.01,2013-04-11 22:19:00,
2013-04-11 18:24:00,35.2,19.4,30.15,NNE,31,2.0,6.0,52,0.00,,,0.01,VWS V14.01,2013-04-11 22:24:00,
2013-04-11 18:29:00,34.9,19.1,30.16,North,360,0.0,4.0,52,0.00,,,0.01,VWS V14.01,2013-04-11 22:29:00,
2013-04-11 18:34:00,34.9,18.6,30.15,NNW,344,0.0,4.0,51,0.00,,,0.01,VWS V14.01,2013-04-11 22:34:00,
2013-04-11 18:39:00,34.7,19.3,30.15,NNW,344,0.0,1.0,53,0.00,,,0.01,VWS V14.01,2013-04-11 22:39:00,
2013-04-11 18:44:00,34.5,19.6,30.15,NE,44,2.0,3.0,54,0.00,,,0.01,VWS V14.01,2013-04-11 22:44:00,
2013-04-11 18:49:00,34.4,19.0,30.16,North,360,1.0,5.0,53,0.00,,,0.01,VWS V14.01,2013-04-11 22:49:00,
2013-04-11 18:54:00,34.3,19.8,30.16,North,360,0.0,5.0,55,0.00,,,0.01,VWS V14.01,2013-04-11 22:54:00,
2013-04-11 18:59:00,34.2,19.3,30.17,North,355,0.0,3.0,54,0.00,,,0.01,VWS V14.01,2013-04-11 22:59:00,
2013-04-11 19:04:00,34.1,19.2,30.17,NNE,28,0.0,3.0,54,0.00,,,0.01,VWS V14.01,2013-04-11 23:04:00,
2013-04-11 19:09:00,34.0,19.5,30.17,NNW,339,0.0,6.0,55,0.00,,,0.01,VWS V14.01,2013-04-11 23:09:00,
2013-04-11 19:14:00,33.9,18.6,30.17,NNW,348,0.0,6.0,53,0.00,,,0.01,VWS V14.01,2013-04-11 23:14:00,
2013-04-11 19:19:00,33.8,19.8,30.17,North,355,0.0,4.0,56,0.00,,,0.01,VWS V14.01,2013-04-11 23:19:00,
2013-04-11 19:24:00,33.7,19.3,30.16,NNE,32,1.0,4.0,55,0.00,,,0.01,VWS V14.01,2013-04-11 23:24:00,
2013-04-11 19:29:00,33.6,19.2,30.16,NNE,30,0.0,6.0,55,0.00,,,0.01,VWS V14.01,2013-04-11 23:29:00,
2013-04-11 19:34:00,33.5,19.1,30.16,NNE,25,0.0,6.0,55,0.00,,,0.01,VWS V14.01,2013-04-11 23:34:00,
2013-04-11 19:39:00,33.4,19.8,30.16,ENE,60,0.0,5.0,57,0.00,,,0.01,VWS V14.01,2013-04-11 23:39:00,
2013-04-11 19:44:00,33.3,19.3,30.16,ENE,76,0.0,5.0,56,0.00,,,0.01,VWS V14.01,2013-04-11 23:44:00,
2013-04-11 19:49:00,33.2,18.8,30.16,NE,53,0.0,3.0,55,0.00,,,0.01,VWS V14.01,2013-04-11 23:49:00,
2013-04-11 19:54:00,33.1,19.1,30.16,East,88,3.0,3.0,56,0.00,,,0.01,VWS V14.01,2013-04-11 23:54:00,
2013-04-11 19:59:00,33.0,19.4,30.16,NE,49,0.0,4.0,57,0.00,,,0.01,VWS V14.01,2013-04-11 23:59:00,
2013-04-11 20:04:00,33.0,19.4,30.16,NE,49,0.0,4.0,57,0.00,,,0.01,VWS V14.01,2013-04-12 00:04:00,
2013-04-11 20:09:00,32.9,19.8,30.17,NE,49,0.0,0.0,58,0.00,,,0.01,VWS V14.01,2013-04-12 00:09:00,
2013-04-11 20:14:00,32.9,19.8,30.17,NE,49,0.0,0.0,58,0.00,,,0.01,VWS V14.01,2013-04-12 00:14:00,
2013-04-11 20:19:00,32.8,18.8,30.17,East,84,0.0,3.0,56,0.00,,,0.01,VWS V14.01,2013-04-12 00:19:00,
2013-04-11 20:24:00,32.7,20.0,30.18,East,84,0.0,3.0,59,0.00,,,0.01,VWS V14.01,2013-04-12 00:24:00,
2013-04-11 20:29:00,32.7,20.0,30.19,East,84,0.0,0.0,59,0.00,,,0.01,VWS V14.01,2013-04-12 00:29:00,
2013-04-11 20:34:00,32.7,21.1,30.19,East,84,0.0,0.0,62,0.00,,,0.01,VWS V14.01,2013-04-12 00:34:00,
2013-04-11 20:39:00,32.6,19.5,30.19,East,84,0.0,0.0,58,0.00,,,0.01,VWS V14.01,2013-04-12 00:39:00,
2013-04-11 20:44:00,32.6,19.9,30.19,East,84,0.0,0.0,59,0.00,,,0.01,VWS V14.01,2013-04-12 00:44:00,
2013-04-11 20:49:00,32.6,19.1,30.19,East,84,0.0,0.0,57,0.00,,,0.01,VWS V14.01,2013-04-12 00:49:00,
2013-04-11 20:54:00,32.5,18.1,30.19,East,84,0.0,3.0,55,0.00,,,0.01,VWS V14.01,2013-04-12 00:54:00,
2013-04-11 20:59:00,32.5,19.0,30.19,East,84,0.0,1.0,57,0.00,,,0.01,VWS V14.01,2013-04-12 00:59:00,
2013-04-11 21:04:00,32.5,18.6,30.20,ENE,73,0.0,2.0,56,0.00,,,0.01,VWS V14.01,2013-04-12 01:04:00,
2013-04-11 21:09:00,32.5,18.6,30.20,ENE,73,0.0,2.0,56,0.00,,,0.01,VWS V14.01,2013-04-12 01:09:00,
2013-04-11 21:14:00,32.4,18.9,30.19,ENE,70,0.0,2.0,57,0.00,,,0.01,VWS V14.01,2013-04-12 01:14:00,
2013-04-11 21:19:00,32.4,19.3,30.19,ENE,66,0.0,2.0,58,0.00,,,0.01,VWS V14.01,2013-04-12 01:19:00,
2013-04-11 21:24:00,32.3,20.0,30.20,ENE,66,0.0,2.0,60,0.00,,,0.01,VWS V14.01,2013-04-12 01:24:00,
2013-04-11 21:29:00,32.2,20.3,30.20,ENE,66,1.0,1.0,61,0.00,,,0.01,VWS V14.01,2013-04-12 01:29:00,
2013-04-11 21:34:00,32.2,19.9,30.19,ENE,66,0.0,1.0,60,0.00,,,0.01,VWS V14.01,2013-04-12 01:34:00,
2013-04-11 21:39:00,32.2,20.3,30.20,ENE,66,0.0,1.0,61,0.00,,,0.01,VWS V14.01,2013-04-12 01:39:00,
2013-04-11 21:44:00,32.2,19.5,30.20,ENE,66,0.0,1.0,59,0.00,,,0.01,VWS V14.01,2013-04-12 01:44:00,
2013-04-11 21:49:00,32.1,21.3,30.20,ENE,66,0.0,0.0,64,0.00,,,0.01,VWS V14.01,2013-04-12 01:49:00,
2013-04-11 21:54:00,32.1,19.4,30.20,ENE,66,0.0,1.0,59,0.00,,,0.01,VWS V14.01,2013-04-12 01:54:00,
2013-04-11 21:59:00,32.0,20.1,30.20,ENE,66,0.0,0.0,61,0.00,,,0.01,VWS V14.01,2013-04-12 01:59:00,
2013-04-11 22:04:00,31.9,19.2,30.20,ENE,66,0.0,1.0,59,0.00,,,0.01,VWS V14.01,2013-04-12 02:04:00,
2013-04-11 22:09:00,31.8,19.1,30.20,ENE,66,0.0,0.0,59,0.00,,,0.01,VWS V14.01,2013-04-12 02:09:00,
2013-04-11 22:14:00,31.8,19.5,30.20,ENE,66,0.0,2.0,60,0.00,,,0.01,VWS V14.01,2013-04-12 02:14:00,
2013-04-11 22:19:00,31.6,20.1,30.20,ENE,66,0.0,0.0,62,0.00,,,0.01,VWS V14.01,2013-04-12 02:19:00,
2013-04-11 22:24:00,31.5,20.0,30.19,ENE,66,0.0,0.0,62,0.00,,,0.01,VWS V14.01,2013-04-12 02:24:00,
2013-04-11 22:29:00,31.4,19.1,30.20,ENE,66,0.0,0.0,60,0.00,,,0.01,VWS V14.01,2013-04-12 02:29:00,
2013-04-11 22:34:00,31.4,20.3,30.20,ENE,66,0.0,1.0,63,0.00,,,0.01,VWS V14.01,2013-04-12 02:34:00,
2013-04-11 22:39:00,31.4,20.3,30.20,ENE,66,0.0,1.0,63,0.00,,,0.01,VWS V14.01,2013-04-12 02:39:00,
2013-04-11 22:44:00,31.4,19.9,30.20,ENE,66,0.0,1.0,62,0.00,,,0.01,VWS V14.01,2013-04-12 02:44:00,
2013-04-11 22:49:00,31.5,21.1,30.20,ENE,66,0.0,1.0,65,0.00,,,0.01,VWS V14.01,2013-04-12 02:49:00,
2013-04-11 22:54:00,31.5,21.5,30.20,ENE,66,0.0,1.0,66,0.00,,,0.01,VWS V14.01,2013-04-12 02:54:00,
2013-04-11 22:59:00,31.5,22.2,30.20,ENE,66,0.0,0.0,68,0.00,,,0.01,VWS V14.01,2013-04-12 02:59:00,
2013-04-11 23:04:00,31.4,21.7,30.21,ENE,66,0.0,1.0,67,0.00,,,0.01,VWS V14.01,2013-04-12 03:04:00,
2013-04-11 23:09:00,31.4,20.6,30.21,NE,54,0.0,3.0,64,0.00,,,0.01,VWS V14.01,2013-04-12 03:09:00,
2013-04-11 23:14:00,31.4,21.4,30.21,NE,42,0.0,3.0,66,0.00,,,0.01,VWS V14.01,2013-04-12 03:14:00,
2013-04-11 23:19:00,31.5,20.4,30.21,NE,42,0.0,2.0,63,0.00,,,0.01,VWS V14.01,2013-04-12 03:19:00,
2013-04-11 23:24:00,31.5,20.0,30.22,WNW,301,3.0,5.0,62,0.00,,,0.01,VWS V14.01,2013-04-12 03:24:00,
2013-04-11 23:29:00,31.6,19.7,30.23,NE,41,0.0,3.0,61,0.00,,,0.01,VWS V14.01,2013-04-12 03:29:00,
2013-04-11 23:34:00,31.6,20.8,30.23,NE,41,0.0,3.0,64,0.00,,,0.01,VWS V14.01,2013-04-12 03:34:00,
2013-04-11 23:39:00,31.6,19.3,30.23,ENE,76,0.0,6.0,60,0.00,,,0.01,VWS V14.01,2013-04-12 03:39:00,
2013-04-11 23:44:00,31.5,18.8,30.23,East,80,0.0,6.0,59,0.00,,,0.01,VWS V14.01,2013-04-12 03:44:00,
2013-04-11 23:49:00,31.5,19.2,30.23,East,84,0.0,7.0,60,0.00,,,0.01,VWS V14.01,2013-04-12 03:49:00,
2013-04-11 23:54:00,31.4,18.7,30.23,ENE,78,3.0,7.0,59,0.00,,,0.01,VWS V14.01,2013-04-12 03:54:00,
2013-04-11 23:59:00,31.4,18.7,30.23,ENE,74,0.0,6.0,59,0.00,,,0.01,VWS V14.01,2013-04-12 03:59:00,